This demonstration page uses our WeatherBlox Daily Observations layout. Learn more.

Left ArrowRight Arrow

40.92945, -100.16068

Hourly Observations for April 14, 2020

Temp ( °F °C ) Dew Point ( °F °C ) Humidity (%) Winds ( mph kmh ) Pressure ( in mb ) Visibility ( mi km ) Precip ( " mm )
12:15 am 00:15 Cloudy 24 -4.5 12 -11 61 61 WNW 7 11 30.43 1031 10 16 0.00 0.00
12:35 am 00:35 Cloudy 23 -5 13 -10.7 65 65 NW 5 7 30.44 1031 10 16 0.00 0.00
12:55 am 00:55 Cloudy 25 -4.1 13 -10.5 61 61 WNW 6 9 30.42 1030 10 16 0.00 0.00
1:15 am 01:15 Cloudy 23 -5 13 -10.5 66 66 WNW 6 9 30.43 1030 10 16 0.00 0.00
1:35 am 01:35 Partly Cloudy 22 -5.4 14 -10.1 70 70 W 6 9 30.44 1031 10 16 0.00 0.00
1:55 am 01:55 Clear 20 -6.5 12 -11.1 70 70 W 6 9 30.45 1031 10 16 0.00 0.00
2:15 am 02:15 Clear 20 -6.9 11 -11.5 70 70 W 6 9 30.45 1031 10 16 0.00 0.00
2:35 am 02:35 Clear 18 -7.7 12 -11.3 76 76 W 6 9 30.46 1031 10 16 0.00 0.00
2:55 am 02:55 Clear 15 -9.7 8 -13.2 76 76 NW 3 6 30.47 1032 10 16 0.00 0.00
3:15 am 03:15 Clear 15 -9.3 9 -13 75 75 WNW 6 9 30.46 1032 10 16 0.00 0.00
3:35 am 03:35 Clear 15 -9.5 9 -12.9 77 77 WNW 5 7 30.47 1032 10 16 0.00 0.00
3:55 am 03:55 Mostly Cloudy 15 -9.4 10 -12.5 78 78 WNW 6 9 30.47 1032 10 16 0.00 0.00
4:15 am 04:15 Cloudy 17 -8.4 12 -11.2 80 80 WNW 5 7 30.45 1031 10 16 0.00 0.00
4:35 am 04:35 Cloudy 18 -7.6 13 -10.8 78 78 WNW 5 7 30.45 1031 10 16 0.00 0.00
4:55 am 04:55 Partly Cloudy 18 -7.7 12 -11.2 76 76 NW 6 9 30.45 1031 10 16 0.00 0.00
5:15 am 05:15 Clear 16 -8.7 11 -11.9 78 78 NW 6 9 30.46 1031 10 16 0.00 0.00
5:35 am 05:35 Clear 18 -8 11 -11.5 76 76 W 5 7 30.44 1031 10 16 0.00 0.00
5:55 am 05:55 Clear 15 -9.5 10 -12.4 80 80 WNW 6 9 30.46 1031 10 16 0.00 0.00
6:15 am 06:15 Clear 17 -8.4 11 -11.5 79 79 W 6 9 30.44 1031 10 16 0.00 0.00
6:35 am 06:35 Clear 17 -8.1 12 -11.2 79 79 WSW 5 7 30.44 1031 10 16 0.00 0.00
6:55 am 06:55 Clear 18 -8 12 -11.3 77 77 W 6 9 30.44 1031 10 16 0.00 0.00
7:15 am 07:15 Sunny 15 -9.2 10 -12.1 80 80 W 6 9 30.46 1032 10 16 0.00 0.00
7:35 am 07:35 Sunny 17 -8.4 11 -11.6 78 78 W 6 9 30.45 1031 10 16 0.00 0.00
7:55 am 07:55 Sunny 21 -6 15 -9.3 78 78 WSW 3 6 30.42 1030 10 16 0.00 0.00
8:15 am 08:15 Mostly Cloudy 25 -4.1 16 -9.1 69 69 W 5 7 30.40 1029 10 16 0.00 0.00
8:35 am 08:35 Mostly Cloudy 25 -3.7 15 -9.2 66 66 WNW 5 7 30.39 1029 10 16 0.00 0.00
8:55 am 08:55 Mostly Cloudy 26 -3.1 16 -8.7 66 66 WNW 5 7 30.38 1029 10 16 0.00 0.00
9:15 am 09:15 Cloudy 28 -2.4 17 -8.5 63 63 SW 6 9 30.37 1029 10 16 0.00 0.00
9:35 am 09:35 Cloudy 30 -1 16 -9.1 55 55 SW 8 13 30.35 1028 10 16 0.00 0.00
9:55 am 09:55 Cloudy 31 -0.5 16 -8.7 54 54 SW 8 13 30.34 1028 10 16 0.00 0.00
10:15 am 10:15 Cloudy 33 0.8 18 -7.6 54 54 SW 10 17 30.32 1027 10 16 0.00 0.00
10:35 am 10:35 Cloudy 35 1.7 19 -7.4 51 51 WSW 10 17 30.30 1026 10 16 0.00 0.00
10:55 am 10:55 Cloudy 36 2.2 22 -5.7 56 56 W 17 28 30.29 1026 10 16 0.00 0.00
11:15 am 11:15 Mostly Cloudy 37 2.8 22 -5.6 54 54 W 15 24 30.27 1025 10 16 0.00 0.00
11:35 am 11:35 Cloudy 40 4.6 21 -6.3 45 45 WSW 16 26 30.23 1024 10 16 0.00 0.00
11:55 am 11:55 Mostly Cloudy 41 4.9 21 -6.2 45 45 WSW 13 20 30.22 1023 10 16 0.00 0.00
12:15 pm 12:15 Mostly Cloudy 41 5 18 -7.6 40 40 WSW 21 33 30.21 1023 10 16 0.00 0.00
12:35 pm 12:35 Cloudy 41 4.9 14 -10.2 33 33 WNW 25 41 30.20 1023 10 16 0.00 0.00
12:55 pm 12:55 Cloudy 43 6.1 12 -11.1 28 28 WNW 23 37 30.17 1022 10 16 0.00 0.00
1:15 pm 13:15 Cloudy 43 6.3 12 -11.2 28 28 W 16 26 30.15 1021 10 16 0.00 0.00
1:35 pm 13:35 Mostly Cloudy 43 6.1 12 -11.2 28 28 WNW 16 26 30.14 1021 10 16 0.00 0.00
1:55 pm 13:55 Mostly Cloudy 46 7.7 11 -11.4 25 25 W 23 37 30.10 1019 10 16 0.00 0.00
2:15 pm 14:15 Cloudy 45 7.1 11 -11.8 25 25 W 17 28 30.10 1019 10 16 0.00 0.00
2:35 pm 14:35 Cloudy 46 7.8 11 -11.9 24 24 W 15 24 30.08 1019 10 16 0.00 0.00
2:55 pm 14:55 Cloudy 48 8.7 11 -11.8 22 22 W 22 35 30.06 1018 10 16 0.00 0.00
3:15 pm 15:15 Cloudy 48 9 12 -11.2 23 23 W 17 28 30.05 1018 10 16 0.00 0.00
3:35 pm 15:35 Mostly Cloudy 50 10.2 13 -10.7 22 22 W 29 46 30.03 1017 10 16 0.00 0.00
3:55 pm 15:55 Mostly Cloudy 49 9.6 13 -10.6 23 23 W 18 30 30.02 1017 10 16 0.00 0.00
4:15 pm 16:15 Mostly Cloudy 49 9.5 13 -10.5 23 23 W 18 30 30.01 1016 10 16 0.00 0.00
4:35 pm 16:35 Mostly Cloudy 49 9.6 11 -11.7 21 21 W 18 30 29.99 1016 10 16 0.00 0.00
4:55 pm 16:55 Partly Cloudy 50 10.1 12 -11.1 21 21 WNW 29 46 29.99 1016 10 16 0.00 0.00
5:15 pm 17:15 Partly Cloudy 49 9.7 12 -10.9 22 22 WNW 20 31 29.98 1015 10 16 0.00 0.00
5:35 pm 17:35 Mostly Cloudy 49 9.6 13 -10.4 23 23 WNW 18 30 29.98 1015 10 16 0.00 0.00
5:55 pm 17:55 Mostly Cloudy 49 9.5 15 -9.7 25 25 WNW 23 37 29.99 1015 10 16 0.00 0.00
6:15 pm 18:15 Mostly Cloudy 47 8.5 16 -9.1 28 28 WNW 22 35 30.01 1016 10 16 0.00 0.00
6:35 pm 18:35 Cloudy 48 8.8 18 -7.8 30 30 WNW 15 24 29.99 1016 10 16 0.00 0.00
6:55 pm 18:55 Cloudy 47 8.5 17 -8.3 30 30 NW 18 30 30.01 1016 10 16 0.00 0.00
7:15 pm 19:15 Cloudy 46 8 19 -7.2 34 34 WNW 21 33 30.01 1016 10 16 0.00 0.00
7:35 pm 19:35 Mostly Cloudy 45 7.4 21 -6.2 38 38 NW 22 35 30.02 1016 10 16 0.00 0.00
7:55 pm 19:55 Cloudy 44 6.7 23 -5.2 43 43 NW 18 30 30.03 1017 10 16 0.00 0.00
8:15 pm 20:15 Cloudy 43 6 23 -4.9 46 46 NW 9 15 30.04 1017 10 16 0.00 0.00
8:35 pm 20:35 Cloudy 42 5.4 23 -5 47 47 NNW 13 20 30.04 1017 10 16 0.00 0.00
8:55 pm 20:55 Cloudy 42 5.7 25 -4.1 50 50 NNW 18 30 30.05 1018 10 16 0.00 0.00
9:15 pm 21:15 Cloudy 42 5.6 25 -4 50 50 NNW 10 17 30.06 1018 10 16 0.00 0.00
9:35 pm 21:35 Cloudy 41 4.9 26 -3.3 56 56 N 16 26 30.09 1019 10 16 0.00 0.00
9:55 pm 21:55 Cloudy 39 4 28 -2.5 63 63 N 12 19 30.11 1020 10 16 0.00 0.00
10:15 pm 22:15 Cloudy 37 2.5 28 -2.5 70 70 N 7 11 30.13 1020 10 16 0.00 0.00
10:35 pm 22:35 Mostly Cloudy 35 1.8 28 -2.3 75 75 N 8 13 30.15 1021 10 16 0.00 0.00
10:55 pm 22:55 Mostly Cloudy 35 1.6 29 -1.5 80 80 N 7 11 30.15 1021 10 16 0.00 0.00
11:15 pm 23:15 Mostly Cloudy 32 0 28 -2.4 84 84 NNE 8 13 30.17 1022 10 16 0.00 0.00
11:35 pm 23:35 Partly Cloudy 31 -0.5 27 -2.6 86 86 NNE 9 15 30.18 1022 10 16 0.00 0.00
11:55 pm 23:55 Clear 30 -1 26 -3.1 86 86 NE 9 15 30.19 1022 10 16 0.00 0.00

Powered by AerisWeather